Regional Weather Roundup
Issued by NWS Northern Indiana

Home | Current Version | Previous Version | Graphics & Text | Print | Product List | Glossary On
Versions: 1 2 3 4 5 6 7 8 9 10 11 12 13 14 15 16 17 18 19 20 21 22 23 24 25 26 27 28 29 30 31 32 33 34 35 36 37 38 39 40 41 42 43 44 45 46 47 48 49 50
000
ASUS43 KIWX 271310
RWRIWX

KIWX WEATHER ROUNDUP
NATIONAL WEATHER SERVICE NORTHERN INDIANA
800 AM EST SAT DEC 27 2014

NOTE: "FAIR" INDICATES FEW OR NO CLOUDS BELOW 12,000 FEET WITH NO
SIGNIFICANT WEATHER AND/OR OBSTRUCTIONS TO VISIBILITY.

* THESE STATIONS ARE NOT UNDER NWS QUALITY CONTROL. THEY ALSO MAY NOT
  REPORT WEATHER SUCH AS PRECIPITATION OR FOG.

INZ001>027-271400-
NORTHERN INDIANA

CITY           SKY/WX    TMP DP  RH WIND       PRES   REMARKS
GARY*          CLOUDY    48  43  81 S10G28    30.00S
VALPARAISO     CLOUDY    45  43  93 S13       30.03R
MICHIGAN CITY* CLOUDY    45  43  93 SW12      30.02S FOG
LAPORTE*       CLOUDY    46  46 100 SW12      30.03S FOG
KNOX*          CLOUDY    44  40  86 S13       30.03S
SOUTH BEND     CLOUDY    45  43  93 S13       30.03S FOG
GOSHEN         CLOUDY    44  42  93 S15       30.04S
MONTICELLO*    CLOUDY    44  44  99 S12       30.06R FOG
LOGANSPORT*    CLOUDY    43  41  93 S9        30.08R FOG
ROCHESTER*     CLOUDY    45  45 100 SW10G17   30.07R FOG
WARSAW*        DRIZZLE   43  41  93 S5        30.06R
ANGOLA*        CLOUDY    43  41  93 S10       30.05F
FORT WAYNE     CLOUDY    43  40  89 S14       30.09S
HUNTINGTON*    CLOUDY    42  40  91 S9        30.08F
PERU/GRISSOM   CLOUDY    44  44 100 S14       30.08R
MARION*        CLOUDY    42  39  91 S15       30.11S

$$
INZ028>050-271400-
CENTRAL INDIANA

CITY           SKY/WX    TMP DP  RH WIND       PRES   REMARKS
LAFAYETTE      CLOUDY    44  43  96 SW8       30.08R FOG
KOKOMO*        CLOUDY    45  39  81 S16G22    30.08F
MUNCIE*        CLOUDY    43  40  89 S14       30.11F
INDIANAPOLIS   CLOUDY    42  40  92 SE8       30.11F

$$
MIZ043>046-050>051-056>058-064>065-071>073-077>080-271400-
SOUTHWEST LOWER MICHIGAN

CITY           SKY/WX    TMP DP  RH WIND       PRES   REMARKS
BATTLE CREEK   CLOUDY    45  42  89 S14       30.02S
BENTON HARBOR  CLOUDY    45  44  97 S12G20    30.00R
COLDWATER*     CLOUDY    43  42  95 S9        30.04S
HILLSDALE*     CLOUDY    43  43 100 S12       30.04F FOG
HOLLAND        CLOUDY    47  43  86 S13       29.99R
GRAND RAPIDS   MOCLDY    45  41  86 S15       29.98S
KALAMAZOO      CLOUDY    45  42  89 S15       30.02S FOG
STURGIS*       CLOUDY    43  43 100 S15       30.04R
THREE RIVERS*  CLOUDY    44  42  93 S13G18    30.03S

$$
OHZ001>008-015>018-024>025-271400-
NORTHWEST OHIO

CITY           SKY/WX    TMP DP  RH WIND       PRES   REMARKS
WAUSEON*       LGT RAIN  45  41  87 S13       30.09S
DEFIANCE       LGT RAIN  45  39  79 S9        30.10S
FINDLAY        CLOUDY    46  36  68 S13       30.12S
TOLEDO EXPRESS CLOUDY    45  38  76 S9        30.10R
TOLEDO METCALF CLOUDY    46  38  73 S13       30.12R
LIMA           CLOUDY    46  34  62 S10       30.13S

$$
AND FOR LAKE MICHIGAN COASTAL AND OPEN LAKE BUOY OBSERVATIONS

STATION/POSITION TEMP    WIND        PRES    VSBY  WAVE
                 AIR SEA DIR/SP/G                  HT/PER
                 (F)     (DEG/KT/KT) (MB)    (MI)  (FT/S)
CALUMET HARBOR    46     190/  9/ 16 1014.3F
MICHIGAN CITY     45     170/ 15/ 18   N/A
SAINT JOSEPH      46     170/  9/ 13 1015.9S

$$
&&


USA.gov is the U.S. government's official web portal to all federal, state and local government web resources and services.